Flag for Russia Weather past 2 weeks in Yakutsk, Russia

Now
12 °F

Passing clouds.


Feels Like: 3 °F
Forecast: -14 / 9 °F
Wind: 6 mph from West

Location: Jakutsk

Current Time: Mar 28, 2015 at 2:50:25 PM

Latest Report: Mar 28, 2015 at 2:30 PM


Visibility: N/A

Pressure: 29.95 "Hg

Humidity: 40%

Dew point: -8 °F

Location of YakutskLocation

Historic Weather in Yakutsk — Graph

°F

Yakutsk temperature yesterday

Maximum temperature yesterday: 10 °F (at 1:30 PM)
Minimum temperature yesterday: 1 °F (at 10:30 PM)
Average temperature yesterday: 6 °F

Past Weeks' High & Low Weather Summary

 TemperatureHumidityPressure
High43 °F (Mar 25, 2:00 PM)100% (Mar 15, 9:00 AM)30.24 "Hg (Mar 15, 9:00 AM)
Low-13 °F (Mar 23, 5:30 AM)40% (Mar 19, 1:30 PM)29.00 "Hg (Mar 26, 4:30 AM)
Average14 °F70%29.76 "Hg
* Reported Mar 13 2:00 PM — Mar 28 2:00 PM, Yakutsk, Weather by CustomWeather, © 2015

Note: Actual official high and low records may vary slightly from our data, if they occured in-between our weather recording intervals... More about our weather records

Advertising

Yakutsk weather history for previous 24 hours

 ConditionsComfort  
Time TempWeatherWind HumidityBarometerVisibility
2:00 PM
Sat, Mar 28
12 °FSunny.6 mph40%29.98 "Hg10 mi
1:30 PM10 °FSunny.8 mph44%29.98 "Hg10 mi
12:30 PM10 °FSunny.6 mph44%29.98 "Hg10 mi
12:00 PM9 °FSunny.8 mph47%29.98 "Hg10 mi
11:30 AM7 °FSunny.6 mph47%29.98 "Hg10 mi
11:00 AM7 °FSunny.6 mph47%29.98 "Hg10 mi
10:30 AM5 °FSunny.6 mph46%29.98 "Hg10 mi
10:00 AM5 °FSunny.6 mph46%29.98 "Hg10 mi
9:30 AM3 °FSunny.3 mph50%29.98 "Hg10 mi
9:00 AM1 °FSunny.3 mph55%29.98 "Hg10 mi
8:30 AM0 °FSunny.3 mph54%29.98 "Hg10 mi
8:00 AM-2 °FSunny.3 mph59%29.98 "Hg10 mi
7:30 AM-2 °FSunny.No wind59%29.98 "Hg10 mi
7:00 AM-4 °FSunny.No wind65%29.98 "Hg10 mi
6:30 AM-4 °FSunny.3 mph65%29.98 "Hg10 mi
6:00 AM-6 °FSunny.1 mph64%29.98 "Hg10 mi
5:30 AM-4 °FClear.3 mph65%29.98 "Hg10 mi
5:00 AM-6 °FClear.1 mph70%29.98 "Hg10 mi
4:30 AM-6 °FClear.1 mph64%30.01 "Hg10 mi
4:00 AM-4 °FClear.3 mph65%30.01 "Hg10 mi
3:30 AM-6 °FClear.No wind70%30.01 "Hg10 mi
3:00 AM-4 °FClear.No wind65%30.01 "Hg10 mi
2:30 AM-2 °FClear.1 mph59%30.01 "Hg10 mi
2:00 AM-2 °FClear.No wind65%30.01 "Hg10 mi
1:30 AM-2 °FClear.3 mph65%30.01 "Hg10 mi
1:00 AM0 °FClear.3 mph60%30.01 "Hg10 mi
12:30 AM0 °FClear.6 mph60%30.01 "Hg10 mi
12:00 AM0 °FClear.6 mph60%30.01 "Hg10 mi
11:30 PM
Fri, Mar 27
1 °FClear.8 mph60%30.01 "Hg10 mi
11:00 PM1 °FClear.8 mph60%30.04 "Hg10 mi
10:30 PM1 °FClear.10 mph60%30.04 "Hg10 mi
10:00 PM3 °FClear.8 mph55%30.04 "Hg10 mi
9:30 PM3 °FClear.8 mph55%30.04 "Hg10 mi
9:00 PM5 °FClear.8 mph55%30.04 "Hg10 mi
8:30 PM5 °FClear.8 mph55%30.04 "Hg10 mi
8:00 PM5 °FClear.6 mph55%30.04 "Hg10 mi
7:30 PM7 °FClear.10 mph56%30.04 "Hg10 mi
7:00 PM7 °FClear.10 mph56%30.04 "Hg10 mi
6:30 PM9 °FSunny.10 mph51%30.01 "Hg10 mi
6:00 PM10 °FSunny.13 mph52%30.01 "Hg10 mi
5:30 PM10 °FSunny.15 mph52%30.01 "Hg10 mi
5:00 PM10 °FSunny.13 mph52%30.01 "Hg10 mi
4:30 PM10 °FSunny.15 mph52%30.01 "Hg10 mi
4:00 PM10 °FSunny.13 mph52%30.01 "Hg10 mi
3:30 PM10 °FSunny.15 mph56%30.01 "Hg10 mi
3:00 PM10 °FSunny.15 mph56%30.01 "Hg10 mi
2:30 PM10 °FSunny.15 mph56%30.01 "Hg10 mi
2:00 PM10 °FSunny.15 mph52%30.01 "Hg10 mi
Weather by CustomWeather, © 2015

See weather overviewHow to use our weather pages